GW0175 Weather Reports


time (UTC)temp
C
wind
direction
speed
KPH
gust
KPH
rain 1hr
cm
rain 24hr
cm
rain mn
cm
humidity
%
barometer
mb
20260506193114 26 279 9.7 22.5 0.00 0.00 0.00 15 1009.5
20260506192611 26 232 19.3 19.3 0.00 0.00 0.00 16 1009.5
20260506192106 26 287 3.2 19.3 0.00 0.00 0.00 16 1009.5
20260506191603 26 247 22.5 24.1 0.00 0.00 0.00 16 1009.1
20260506191059 25 282 16.1 29.0 0.00 0.00 0.00 16 1009.7
20260506190557 26 248 14.5 30.6 0.00 0.00 0.00 17 1009.1
20260506190053 25 235 16.1 22.5 0.00 0.00 0.00 18 1009.9
20260506185551 26 290 16.1 16.1 0.00 0.00 0.00 15 1009.7
20260506185047 26 280 6.4 22.5 0.00 0.00 0.00 16 1009.7
20260506184544 25 251 9.7 17.7 0.00 0.00 0.00 17 1009.7
20260506184042 26 340 1.6 16.1 0.00 0.00 0.00 16 1009.9
20260506183538 25 272 11.3 24.1 0.00 0.00 0.00 18 1009.9
20260506183034 26 270 0.0 20.9 0.00 0.00 0.00 16 1009.8
20260506182532 25 261 8.0 17.7 0.00 0.00 0.00 18 1010.0
20260506182029 25 259 8.0 24.1 0.00 0.00 0.00 17 1010.1
20260506181527 25 352 3.2 14.5 0.00 0.00 0.00 18 1010.1
20260506181023 25 256 11.3 17.7 0.00 0.00 0.00 18 1010.3
20260506180520 25 260 17.7 17.7 0.00 0.00 0.00 19 1010.0
20260506180016 25 276 11.3 19.3 0.00 0.00 0.00 19 1010.3
20260506175513 25 267 14.5 20.9 0.00 0.00 0.00 19 1010.1
20260506175010 25 239 6.4 32.2 0.00 0.00 0.00 18 1010.3
20260506174508 25 270 3.2 17.7 0.00 0.00 0.00 20 1010.4
20260506174004 25 352 0.0 12.9 0.00 0.00 0.00 22 1010.6
20260506173502 23 190 4.8 8.0 0.00 0.00 0.00 31 1010.4
20260506172958 23 90 0.0 4.8 0.00 0.00 0.00 33 1011.0
20260506172455 23 157 1.6 6.4 0.00 0.00 0.00 35 1010.6
20260506171946 22 223 6.4 11.3 0.00 0.00 0.00 35 1010.9
20260506171444 23 166 0.0 3.2 0.00 0.00 0.00 34 1010.9
20260506170941 22 259 4.8 8.0 0.00 0.00 0.00 36 1011.0
20260506170437 22 249 11.3 11.3 0.00 0.00 0.00 35 1011.1
20260506165931 21 306 0.0 12.9 0.00 0.00 0.00 38 1011.1
20260506165429 21 4 3.2 9.7 0.00 0.00 0.00 38 1011.3
20260506164924 21 324 3.2 9.7 0.00 0.00 0.00 37 1011.2
20260506164421 21 17 6.4 8.0 0.00 0.00 0.00 38 1011.3
20260506163919 20 315 3.2 6.4 0.00 0.00 0.00 39 1011.3
20260506163413 21 1 9.7 9.7 0.00 0.00 0.00 38 1011.2
20260506162908 20 36 9.7 11.3 0.00 0.00 0.00 40 1011.3
20260506162406 21 143 0.0 9.7 0.00 0.00 0.00 40 1011.4
20260506161858 21 74 0.0 6.4 0.00 0.00 0.00 40 1011.4
20260506161356 20 115 3.2 6.4 0.00 0.00 0.00 44 1011.4
20260506160853 20 69 0.0 4.8 0.00 0.00 0.00 44 1011.4
20260506160350 19 23 6.4 9.7 0.00 0.00 0.00 47 1011.5
20260506155848 20 36 4.8 6.4 0.00 0.00 0.00 46 1011.5
20260506155345 20 100 8.0 9.7 0.00 0.00 0.00 44 1011.8
20260506153502 19 0 0.0 3.2 0.00 0.00 0.00 47 1011.8
20260506153000 18 277 0.0 4.8 0.00 0.00 0.00 48 1012.0
20260506152456 18 0 0.0 3.2 0.00 0.00 0.00 48 1011.6
20260506151954 17 17 6.4 11.3 0.00 0.00 0.00 51 1011.9
20260506151452 17 0 3.2 9.7 0.00 0.00 0.00 52 1011.8
20260506150949 17 19 6.4 8.0 0.00 0.00 0.00 52 1011.8
20260506150445 16 7 6.4 11.3 0.00 0.00 0.00 54 1011.9
20260506145942 16 0 4.8 11.3 0.00 0.00 0.00 53 1011.8
20260506145438 16 337 6.4 12.9 0.00 0.00 0.00 55 1011.9
20260506144936 16 30 8.0 11.3 0.00 0.00 0.00 56 1012.1
20260506144432 16 9 9.7 12.9 0.00 0.00 0.00 55 1011.9
20260506143931 16 341 4.8 12.9 0.00 0.00 0.00 56 1012.0
20260506143428 16 26 0.0 11.3 0.00 0.00 0.00 57 1012.1
20260506142926 15 1 9.7 11.3 0.00 0.00 0.00 57 1011.8
20260506142424 15 7 9.7 12.9 0.00 0.00 0.00 58 1012.2
20260506141921 15 12 9.7 14.5 0.00 0.00 0.00 57 1012.0
20260506141419 15 1 9.7 12.9 0.00 0.00 0.00 58 1012.1
20260506140918 15 3 12.9 16.1 0.00 0.00 0.00 58 1012.4
20260506140414 15 355 11.3 12.9 0.00 0.00 0.00 59 1012.3
20260506135911 15 6 8.0 14.5 0.00 0.00 0.00 60 1012.2
20260506135408 15 345 8.0 12.9 0.00 0.00 0.00 59 1012.3
20260506134904 15 3 8.0 11.3 0.00 0.00 0.00 60 1012.1
20260506134400 15 349 3.2 9.7 0.00 0.00 0.00 59 1012.0
20260506133857 15 303 3.2 8.0 0.00 0.00 0.00 61 1012.2
20260506133354 14 345 0.0 12.9 0.00 0.00 0.00 61 1011.6
20260506132850 14 350 4.8 12.9 0.00 0.00 0.00 61 1011.5
20260506132348 14 332 3.2 8.0 0.00 0.00 0.00 62 1011.5
20260506131846 14 2 4.8 8.0 0.00 0.00 0.00 63 1011.8
20260506131342 15 0 3.2 3.2 0.00 0.00 0.00 62 1011.6
20260506130839 15 24 3.2 3.2 0.00 0.00 0.00 64 1011.5
20260506130335 14 131 0.0 3.2 0.00 0.00 0.00 66 1011.3
20260506125833 13 0 1.6 6.4 0.00 0.00 0.00 65 1011.2
20260506125332 13 90 0.0 0.0 0.00 0.00 0.00 65 1011.2
20260506124830 13 77 0.0 3.2 0.00 0.00 0.00 68 1011.3
20260506124326 12 14 0.0 1.6 0.00 0.00 0.00 68 1011.2
20260506123824 12 99 0.0 4.8 0.00 0.00 0.00 70 1011.2
20260506123322 11 3 3.2 6.4 0.00 0.00 0.00 71 1011.3
20260506122819 11 41 0.0 3.2 0.00 0.00 0.00 72 1011.0
20260506122316 11 26 4.8 4.8 0.00 0.00 0.00 71 1011.0
20260506121814 11 8 0.0 1.6 0.00 0.00 0.00 71 1011.1
20260506121311 11 0 3.2 6.4 0.00 0.00 0.00 70 1010.9
20260506120808 12 0 3.2 6.4 0.00 0.00 0.00 70 1010.8
20260506120306 11 15 4.8 6.4 0.00 0.00 0.00 71 1010.7
20260506115803 11 0 3.2 6.4 0.00 0.00 0.00 70 1010.6
20260506115306 11 351 4.8 6.4 0.00 0.00 0.00 70 1010.6
20260506114759 11 6 6.4 6.4 0.00 0.00 0.00 71 1010.4
20260506114256 11 16 6.4 6.4 0.00 0.00 0.00 70 1010.3
20260506113755 12 0 8.0 8.0 0.00 0.00 0.00 68 1010.4
20260506113252 12 35 0.0 3.2 0.00 0.00 0.00 68 1010.7
20260506112748 12 5 3.2 8.0 0.00 0.00 0.00 67 1010.2
20260506112246 12 18 4.8 8.0 0.00 0.00 0.00 65 1010.3
20260506111743 12 9 8.0 12.9 0.00 0.00 0.00 64 1010.1
20260506111241 13 18 8.0 8.0 0.00 0.00 0.00 62 1010.2
20260506110737 13 52 9.7 12.9 0.00 0.00 0.00 60 1010.1
20260506110236 14 37 9.7 16.1 0.00 0.00 0.00 57 1009.9
20260506105732 15 56 14.5 19.3 0.00 0.00 0.00 52 1010.1
20260506105229 15 9 9.7 19.3 0.00 0.00 0.00 51 1009.9
20260506104727 14 353 9.7 11.3 0.00 0.00 0.00 52 1009.7
20260506104224 14 357 3.2 8.0 0.00 0.00 0.00 52 1009.4
20260506103721 13 11 4.8 11.3 0.00 0.00 0.00 55 1009.4
20260506103218 14 344 9.7 11.3 0.00 0.00 0.00 54 1009.0
20260506102716 15 345 1.6 9.7 0.00 0.00 0.00 47 1009.0
20260506102214 16 15 1.6 4.8 0.00 0.00 0.00 45 1009.0
20260506101710 16 18 0.0 3.2 0.00 0.00 0.00 43 1008.7
20260506101207 16 19 4.8 4.8 0.00 0.00 0.00 42 1008.8
20260506100705 17 8 3.2 8.0 0.00 0.00 0.00 41 1009.0
20260506100203 17 29 0.0 4.8 0.00 0.00 0.00 40 1008.7
20260506095701 17 135 3.2 6.4 0.00 0.00 0.00 39 1008.6
20260506095158 17 315 4.8 9.7 0.00 0.00 0.00 40 1008.7
20260506094655 16 16 0.0 4.8 0.00 0.00 0.00 47 1008.5
20260506094153 15 131 3.2 3.2 0.00 0.00 0.00 48 1008.7
20260506093651 15 120 0.0 4.8 0.00 0.00 0.00 53 1008.5
20260506093148 15 106 0.0 4.8 0.00 0.00 0.00 54 1008.4
20260506092646 15 90 1.6 4.8 0.00 0.00 0.00 55 1008.4
20260506092143 15 65 3.2 6.4 0.00 0.00 0.00 56 1008.4
20260506091640 14 33 3.2 4.8 0.00 0.00 0.00 57 1008.2
20260506091137 14 68 4.8 8.0 0.00 0.00 0.00 57 1008.3
20260506090636 15 82 1.6 4.8 0.00 0.00 0.00 57 1008.0
20260506090132 14 103 0.0 3.2 0.00 0.00 0.00 58 1008.0
20260506085629 14 105 0.0 1.6 0.00 0.00 0.00 60 1007.8
20260506085125 15 82 0.0 1.6 0.00 0.00 0.00 57 1007.9
20260506084622 15 90 0.0 1.6 0.00 0.00 0.00 57 1007.7
20260506084118 15 35 0.0 0.0 0.00 0.00 0.00 55 1007.7
20260506083616 16 52 3.2 4.8 0.00 0.00 0.00 55 1007.8
20260506083113 15 23 3.2 3.2 0.00 0.00 0.00 54 1007.4
20260506082610 15 0 0.0 4.8 0.00 0.00 0.00 56 1007.6
20260506082105 15 53 3.2 4.8 0.00 0.00 0.00 56 1007.6
20260506081603 16 294 0.0 6.4 0.00 0.00 0.00 53 1007.7
20260506081101 16 302 4.8 4.8 0.00 0.00 0.00 54 1007.6
20260506080559 16 99 0.0 3.2 0.00 0.00 0.00 50 1007.8
20260506073038 18 325 0.0 4.8 0.00 0.00 0.00 43 1007.5
20260506072536 18 286 0.0 4.8 0.00 0.00 0.00 42 1007.5
20260506072034 18 280 3.2 6.4 0.00 0.00 0.00 41 1007.4
20260506071531 18 292 4.8 6.4 0.00 0.00 0.00 41 1007.6
20260506071028 19 274 4.8 8.0 0.00 0.00 0.00 41 1007.3
20260506070525 19 277 6.4 6.4 0.00 0.00 0.00 42 1007.4
20260506062503 18 185 1.6 4.8 0.00 0.00 0.00 48 1007.5
20260506061959 18 180 1.6 4.8 0.00 0.00 0.00 50 1007.2
20260506061455 18 90 0.0 3.2 0.00 0.00 0.00 51 1007.3
20260506060953 18 139 0.0 4.8 0.00 0.00 0.00 50 1007.3
20260506060451 17 162 1.6 3.2 0.00 0.00 0.00 55 1007.3
20260506050920 18 270 0.0 3.2 0.00 0.00 0.00 51 1007.1
20260506050418 18 294 0.0 3.2 0.00 0.00 0.00 52 1007.3
20260506044908 17 216 3.2 3.2 0.00 0.00 0.00 55 1007.2
20260506044406 17 194 0.0 6.4 0.00 0.00 0.00 52 1007.2
20260506043903 18 208 3.2 6.4 0.00 0.00 0.00 56 1007.2
20260506043400 18 234 0.0 3.2 0.00 0.00 0.00 53 1006.9
20260506042858 18 261 0.0 1.6 0.00 0.00 0.00 52 1006.9
20260506042357 18 8 0.0 0.0 0.00 0.00 0.00 50 1007.1
20260506041855 18 8 0.0 0.0 0.00 0.00 0.00 47 1006.7
20260506041354 18 8 0.0 0.0 0.00 0.00 0.00 48 1006.8
20260506040849 18 8 0.0 0.0 0.00 0.00 0.00 47 1006.7
20260506040347 18 0 0.0 0.0 0.00 0.00 0.00 47 1006.9
20260506035843 19 0 0.0 0.0 0.00 0.00 0.00 47 1006.7
20260506035340 19 12 0.0 3.2 0.00 0.00 0.00 46 1006.6
20260506034837 18 29 1.6 3.2 0.00 0.00 0.00 47 1006.4
20260506034334 18 14 4.8 4.8 0.00 0.00 0.00 50 1006.8
20260506033831 19 131 0.0 0.0 0.00 0.00 0.00 45 1006.6
20260506033328 19 131 0.0 0.0 0.00 0.00 0.00 46 1006.6
20260506032825 19 131 0.0 0.0 0.00 0.00 0.00 46 1006.7
20260506032322 19 117 0.0 0.0 0.00 0.00 0.00 48 1006.5
20260506031819 19 90 0.0 1.6 0.00 0.00 0.00 48 1006.6
20260506031316 20 148 0.0 3.2 0.00 0.00 0.00 49 1006.5
20260506030814 20 74 0.0 1.6 0.00 0.00 0.00 45 1006.7
20260506030312 20 15 0.0 3.2 0.00 0.00 0.00 43 1006.4
20260506025808 21 35 0.0 3.2 0.00 0.00 0.00 42 1006.4
20260506025306 21 270 0.0 3.2 0.00 0.00 0.00 40 1006.2
20260506024802 21 240 0.0 0.0 0.00 0.00 0.00 40 1006.4
20260506024258 21 240 0.0 3.2 0.00 0.00 0.00 39 1006.2
20260506023754 21 311 0.0 3.2 0.00 0.00 0.00 38 1006.3
20260506023252 22 283 1.6 3.2 0.00 0.00 0.00 38 1006.1
20260506022748 22 277 0.0 3.2 0.00 0.00 0.00 37 1006.1
20260506022246 22 248 3.2 4.8 0.00 0.00 0.00 36 1006.1
20260506021744 22 270 0.0 3.2 0.00 0.00 0.00 36 1006.2
20260506021241 22 294 0.0 4.8 0.00 0.00 0.00 35 1006.1
20260506020737 22 263 4.8 6.4 0.00 0.00 0.00 35 1006.2
20260506020235 23 297 4.8 8.0 0.00 0.00 0.00 34 1006.0
20260506015733 23 290 6.4 12.9 0.00 0.00 0.00 34 1006.1
20260506015230 23 256 8.0 9.7 0.00 0.00 0.00 34 1006.2
20260506014727 23 292 4.8 11.3 0.00 0.00 0.00 33 1005.9
20260506014223 23 259 8.0 11.3 0.00 0.00 0.00 33 1006.0
20260506013721 23 307 9.7 14.5 0.00 0.00 0.00 32 1005.9
20260506013218 24 0 1.6 14.5 0.00 0.00 0.00 31 1006.0
20260506012714 23 287 8.0 19.3 0.00 0.00 0.00 32 1005.7
20260506012211 24 281 8.0 14.5 0.00 0.00 0.00 32 1005.9
20260506011708 24 313 4.8 9.7 0.00 0.00 0.00 32 1006.0
20260506011204 24 263 6.4 14.5 0.00 0.00 0.00 31 1005.9
20260506010703 25 259 8.0 17.7 0.00 0.00 0.00 30 1005.9
20260506010200 25 265 6.4 20.9 0.00 0.00 0.00 30 1005.7
20260506005657 25 268 8.0 25.7 0.00 0.00 0.00 29 1005.6
20260506005153 25 290 14.5 22.5 0.00 0.00 0.00 29 1005.7
20260506004649 25 261 6.4 25.7 0.00 0.00 0.00 29 1005.6
20260506004147 26 273 6.4 27.4 0.00 0.00 0.00 29 1005.6
20260506003643 26 261 9.7 19.3 0.00 0.00 0.00 29 1005.6
20260506003139 26 300 17.7 25.7 0.00 0.00 0.00 29 1005.5
20260506002636 26 275 12.9 32.2 0.00 0.00 0.00 29 1005.5
20260506002132 26 307 6.4 29.0 0.00 0.00 0.00 29 1005.7
20260506001627 26 270 17.7 27.4 0.00 0.00 0.00 28 1005.5
20260506001125 26 292 8.0 29.0 0.00 0.00 0.00 29 1005.6
20260506000622 26 292 8.0 27.4 0.00 0.00 0.00 28 1005.6
20260506000120 26 276 14.5 24.1 0.00 0.00 0.00 28 1005.9
20260505235618 27 288 12.9 19.3 0.00 0.00 0.00 28 1005.4
20260505235114 26 240 35.4 35.4 0.00 0.00 0.00 27 1005.5
20260505234611 27 243 17.7 25.7 0.00 0.00 0.00 27 1005.5
20260505234108 26 278 9.7 27.4 0.00 0.00 0.00 28 1005.6
20260505233606 27 246 8.0 17.7 0.00 0.00 0.00 28 1005.7
20260505233103 26 259 9.7 29.0 0.00 0.00 0.00 29 1006.0
20260505232601 26 253 12.9 30.6 0.00 0.00 0.00 30 1006.1
20260505232058 26 308 6.4 41.8 0.00 0.00 0.00 30 1005.9
20260505231554 26 296 9.7 25.7 0.00 0.00 0.00 30 1005.9
20260505231053 26 262 24.1 30.6 0.00 0.00 0.00 30 1006.1
20260505230550 26 315 4.8 24.1 0.00 0.00 0.00 31 1006.0
20260505230046 25 246 11.3 27.4 0.00 0.00 0.00 30 1006.3
20260505225544 25 275 16.1 41.8 0.00 0.00 0.00 30 1006.0
20260505225039 26 276 9.7 27.4 0.00 0.00 0.00 29 1006.0
20260505224537 26 287 11.3 33.8 0.00 0.00 0.00 29 1006.2
20260505224034 27 246 11.3 25.7 0.00 0.00 0.00 29 1005.9
20260505223531 26 281 14.5 32.2 0.00 0.00 0.00 29 1005.9
20260505223027 26 283 19.3 27.4 0.00 0.00 0.00 29 1006.1
20260505222523 26 270 8.0 29.0 0.00 0.00 0.00 30 1005.9
20260505222019 26 226 11.3 35.4 0.00 0.00 0.00 29 1006.0
20260505221517 26 241 6.4 25.7 0.00 0.00 0.00 29 1005.9
20260505221013 26 349 4.8 27.4 0.00 0.00 0.00 30 1006.2
20260505220510 27 274 14.5 29.0 0.00 0.00 0.00 29 1006.1
20260505220008 27 310 9.7 24.1 0.00 0.00 0.00 28 1006.2
20260505215506 26 284 14.5 37.0 0.00 0.00 0.00 29 1006.2
20260505215004 27 287 8.0 14.5 0.00 0.00 0.00 28 1006.2
20260505214502 26 277 12.9 35.4 0.00 0.00 0.00 29 1006.5
20260505213958 27 282 11.3 20.9 0.00 0.00 0.00 28 1006.4
20260505213456 28 286 17.7 17.7 0.00 0.00 0.00 28 1006.2
20260505212952 26 251 6.4 30.6 0.00 0.00 0.00 29 1006.1
20260505212449 27 297 17.7 24.1 0.00 0.00 0.00 28 1006.0
20260505211945 27 312 6.4 38.6 0.00 0.00 0.00 29 1006.5
20260505211443 27 270 4.8 27.4 0.00 0.00 0.00 27 1006.4
20260505210939 28 326 3.2 14.5 0.00 0.00 0.00 27 1006.1
20260505210437 28 327 8.0 20.9 0.00 0.00 0.00 27 1006.2
20260505205933 27 236 4.8 29.0 0.00 0.00 0.00 26 1006.1
20260505205432 27 281 20.9 25.7 0.00 0.00 0.00 27 1006.3
20260505204928 27 275 12.9 30.6 0.00 0.00 0.00 27 1006.2
20260505204426 27 213 4.8 24.1 0.00 0.00 0.00 27 1006.3
20260505203923 28 255 19.3 27.4 0.00 0.00 0.00 26 1006.1
20260505203419 27 257 19.3 29.0 0.00 0.00 0.00 26 1006.4
20260505202916 28 262 4.8 22.5 0.00 0.00 0.00 27 1006.1
20260505202412 27 299 12.9 32.2 0.00 0.00 0.00 28 1006.4
20260505201909 27 325 20.9 22.5 0.00 0.00 0.00 27 1006.5
20260505201406 27 237 19.3 25.7 0.00 0.00 0.00 28 1006.5
20260505200904 26 232 12.9 29.0 0.00 0.00 0.00 28 1006.5
20260505200401 27 263 9.7 24.1 0.00 0.00 0.00 28 1006.1
20260505195856 26 296 9.7 17.7 0.00 0.00 0.00 28 1006.5
20260505195354 26 257 12.9 24.1 0.00 0.00 0.00 29 1006.5
20260505194851 26 336 3.2 16.1 0.00 0.00 0.00 28 1006.5
20260505194348 26 278 6.4 20.9 0.00 0.00 0.00 29 1006.5
20260505193843 25 299 8.0 20.9 0.00 0.00 0.00 29 1006.5